Terminal Aerodrome Forecast
Issued by NWS

Current Version | Previous Version | Graphics & Text | Print | Product List | Glossary On
Versions: 1 2 3 4 5 6 7 8 9 10 11 12 13 14 15 16 17 18 19 20 21
000
FTUS41 KILN 050600 AAA
TAFLUK
TAF AMD
KLUK 050643Z 0507/0606 00000KT 4SM BR SCT060 BKN150
      TEMPO 0507/0511 1SM BR
     FM051500 23010KT P6SM SCT060
     FM060000 00000KT P6SM SKC=

USA.gov is the U.S. government's official web portal to all federal, state and local government web resources and services.